Temperature
16 16 16 16 16 16 16 16 16 15 15 15 15 15 15 15 15 15 15 15 15 14 14 14 14 15 15 15 14 15 15 15 15 15 15 15 15 15 16 16 16 16 16
16 16 16 16 16 16 16 16 15 15 15 15 15 15 15 15 15 15 15 15 15 14 14 14 14 14 14 14 14 14 15 15 15 15 15 15 15 15 15 15 15 16 16
16 16 16 16 16 16 15 15 15 15 15 15 15 15 15 15 15 14 14 14 14 14 14 14 14 14 14 14 14 14 14 14 15 15 15 15 15 15 15 15 15 15 15
16 16 16 16 16 16 16 15 15 15 15 15 15 15 15 15 15 14 14 14 14 14 14 14 14 14 14 14 14 14 14 14 15 15 15 15 15 15 15 15 15 15 15
16 16 16 16 16 16 16 15 15 15 15 15 15 15 15 15 15 14 14 14 14 14 14 14 14 14 14 14 14 14 14 14 14 14 14 14 14 14 14 14 14 14 14
16 16 16 16 16 16 15 15 15 15 15 15 15 15 15 15 14 14 14 14 14 14 14 14 14 14 14 14 14 14 14 14 14 14 14 14 14 14 14 14 14 14 14
16 16 16 16 16 16 16 15 15 15 15 15 15 15 15 15 14 14 14 14 14 14 14 14 14 14 14 14 14 14 13 13 13 13 13 14 14 14 14 14 14 14 14
16 16 16 16 16 16 16 15 15 15 15 15 15 15 14 14 14 14 14 14 14 14 14 14 13 13 13 13 13 13 13 13 13 13 13 13 13 13 13 13 13 13 13
16 16 16 16 16 16 15 15 15 15 15 15 15 15 15 14 14 14 14 14 14 14 14 13 13 13 13 13 13 13 13 13 13 13 13 13 13 13 13 13 13 13 13
16 16 15 15 16 15 15 15 15 15 15 15 15 15 15 14 14 14 14 14 14 14 13 13 13 13 13 13 13 13 13 13 13 13 13 13 13 13 13 13 13 13 13
16 15 15 15 15 15 15 15 15 15 15 15 15 15 15 14 14 14 14 14 14 13 13 13 13 13 13 13 13 13 13 13 13 13 13 13 13 13 12 13 13 13 12
16 15 15 15 15 15 15 15 15 15 15 15 15 15 14 14 14 14 14 13 13 13 13 13 13 13 13 13 12 12 12 13 13 13 13 13 12 12 12 12 12 12 12
16 15 15 15 15 15 15 15 15 15 15 14 14 14 14 14 14 14 13 13 13 13 13 13 13 12 12 12 12 12 12 12 12 12 12 12 12 12 12 12 12 12 12
16 15 15 15 15 15 15 15 15 14 14 14 14 14 14 14 14 14 13 13 13 13 12 12 12 12 12 12 12 12 12 12 12 12 12 12 12 12 12 12 12 11 11
15 15 15 15 15 15 14 14 14 14 14 14 14 14 14 13 13 13 13 13 13 12 12 12 12 12 12 12 12 12 12 12 12 12 11 11 11 11 11 11 11 11 11
15 15 15 15 15 15 14 14 14 14 14 14 14 13 13 13 13 13 13 13 13 12 12 12 12 12 12 12 11 11 11 11 11 11 11 11 11 11 11 11 11 11 11
15 15 15 15 15 14 14 14 14 14 14 14 13 13 13 13 13 13 13 12 12 12 12 12 12 11 11 11 11 11 11 11 11 11 11 11 11 11 11 11 10 10 10
15 15 15 15 15 14 14 14 14 14 13 13 13 13 13 13 13 13 12 12 12 12 12 12 11 11 11 11 11 11 11 11 11 11 10 10 10 10 10 10 10 10 10
15 15 15 15 14 14 14 14 13 13 13 13 13 13 13 13 13 12 12 12 12 12 12 11 11 11 11 11 11 11 10 10 10 10 10 10 10 10 10 10 10 10 10
15 15 14 14 14 14 14 13 13 13 13 13 13 13 12 12 12 12 12 12 11 11 11 11 11 11 11 10 10 10 10 10 10 10 10 10 10 9 9 9 9 9 9
14 14 14 14 14 14 13 13 13 13 13 13 12 12 12 12 12 12 11 11 11 11 11 11 10 10 10 10 10 10 10 10 10 9 9 9 9 9 9 9 9 9 9
14 14 14 14 13 13 13 13 13 12 12 12 12 12 12 12 12 11 11 11 11 11 11 10 10 10 10 10 9 9 9 9 9 9 9 9 9 9 9 8 8 8 8
14 14 14 13 13 13 13 12 12 12 12 12 12 12 12 11 11 11 11 11 11 10 10 10 10 10 10 9 9 9 9 9 8 8 8 8 8 8 8 8 8 8 7
14 14 13 13 13 13 12 12 12 12 12 12 11 11 11 11 11 11 11 10 10 10 10 9 9 9 9 9 8 8 8 8 8 8 8 8 8 8 7 7 7 7 7
14 13 13 13 13 12 12 12 12 11 11 11 11 11 11 10 10 10 10 10 10 10 9 9 9 9 8 8 8 8 8 8 8 8 7 7 7 7 7 7 6 6 6
13 13 13 13 12 12 12 12 11 11 11 11 11 10 10 10 10 9 9 9 9 9 9 9 8 8 8 8 8 8 7 7 7 7 7 6 6 6 6 6 6 5 5
Wind_Speed
2 3 3 5 5 5 5 5 6 6 6 6 7 6 5 6 7 8 9 11 11 11 11 12 12 11 11 12 12 12 12 12 12 11 11 10 10 9 8 8 7 7 7
3 3 3 3 4 4 5 5 5 4 4 4 5 5 5 5 6 8 9 10 12 11 11 12 12 12 12 12 12 12 12 11 11 11 10 9 9 9 8 8 8 8 8
4 3 3 3 3 4 5 6 5 5 4 4 4 4 5 5 6 7 8 9 9 11 11 11 12 12 12 12 12 12 12 12 11 11 10 9 8 8 8 8 7 7 8
5 4 3 2 3 4 4 3 3 4 4 4 3 3 3 4 5 6 7 8 8 9 10 11 12 12 11 11 11 12 12 12 12 12 11 10 9 7 7 7 7 7 7
5 5 3 3 4 4 3 3 3 3 3 3 3 3 4 4 4 5 5 7 8 8 9 9 11 12 12 11 11 11 12 12 12 12 12 11 9 8 7 7 7 7 7
5 5 4 3 4 3 3 3 4 3 3 3 4 4 4 4 4 4 4 5 7 7 8 8 8 9 11 11 11 11 11 11 11 12 12 12 11 9 8 7 7 6 6
4 5 3 3 3 3 3 3 3 4 3 2 3 4 4 4 4 4 4 4 5 6 7 7 7 8 8 10 11 11 11 11 11 11 11 11 11 10 8 7 7 6 6
4 3 3 3 3 3 3 3 3 3 2 2 3 3 2 4 3 4 3 3 3 5 5 6 7 7 7 8 10 11 10 10 10 11 11 11 10 10 9 8 7 6 5
3 3 3 3 3 3 3 2 3 4 2 2 2 3 3 1 2 3 3 3 3 3 4 5 6 6 6 7 8 9 10 10 10 10 10 10 10 10 9 8 8 7 7
2 3 3 3 3 2 3 2 3 3 4 2 1 2 2 3 2 1 3 3 3 3 3 4 5 6 6 6 6 8 9 9 9 10 10 9 10 10 9 8 7 7 7
2 2 3 3 3 2 2 2 3 3 2 3 2 2 2 2 2 2 1 3 3 3 3 3 4 5 5 5 5 7 7 8 9 9 10 10 10 9 9 9 8 7 7
1 1 2 3 3 3 3 3 3 3 2 3 2 2 2 2 2 2 2 1 2 3 3 3 3 4 4 5 5 6 7 7 8 9 9 10 10 9 8 8 8 8 7
0 1 2 2 2 2 3 4 3 3 2 3 2 2 1 1 2 3 3 1 0 2 3 2 3 3 4 5 5 6 7 7 8 8 8 9 9 9 9 8 8 8 8
2 2 2 3 3 3 3 4 3 3 2 2 2 2 1 1 2 3 3 3 1 2 2 3 2 3 4 4 5 6 6 7 7 7 8 8 8 8 8 8 8 8 7
2 2 3 3 3 3 3 4 3 2 2 2 2 2 1 1 1 1 2 3 4 1 2 3 2 3 4 4 5 5 5 6 7 7 6 7 7 7 7 7 8 8 7
2 3 3 3 3 3 3 3 2 2 3 1 2 2 1 1 1 1 2 1 2 3 2 2 2 2 3 3 5 5 5 6 6 6 6 6 6 6 6 6 6 7 7
3 3 3 3 3 2 3 3 2 3 3 1 1 2 1 1 1 1 2 2 2 2 2 2 1 2 2 3 4 5 5 5 6 6 6 6 6 5 5 6 6 6 6
2 3 3 3 3 2 3 4 3 3 3 2 2 2 1 1 1 1 2 2 2 2 3 2 1 1 1 2 2 3 4 4 5 6 6 6 6 5 5 5 5 5 5
2 2 3 3 3 3 3 3 3 3 3 3 2 2 2 2 2 1 1 1 1 1 2 2 1 1 1 1 2 2 3 4 4 5 6 6 6 6 5 5 4 4 5
3 3 2 3 3 3 3 3 3 3 2 2 2 2 2 3 3 3 2 2 2 2 2 1 1 1 1 2 1 1 2 2 3 4 5 5 6 6 5 5 5 5 5
3 3 3 2 2 2 3 3 3 3 3 2 1 1 2 2 2 2 2 2 3 2 2 1 1 1 1 1 1 1 2 3 2 2 2 3 4 4 5 5 5 5 5
2 3 3 2 2 2 3 5 5 4 3 3 1 1 1 1 1 1 2 2 4 4 3 2 2 2 3 3 2 2 1 1 3 2 1 3 2 2 3 4 5 6 5
3 3 2 2 2 3 3 4 5 4 3 2 2 1 0 0 1 0 0 1 1 2 4 3 3 4 3 3 2 2 2 2 3 2 1 2 2 2 3 5 5 5 5
3 3 2 3 2 2 3 4 5 4 2 2 2 2 2 2 1 1 1 1 1 2 2 2 3 4 3 2 3 3 3 2 1 2 1 2 2 3 4 5 5 5 5
4 3 3 3 3 3 3 4 5 3 2 1 1 1 2 2 2 1 2 1 1 2 2 1 1 2 2 1 1 1 1 0 2 2 1 1 2 3 3 3 4 4 5
4 4 3 3 3 3 3 4 5 3 2 1 0 1 1 2 2 1 3 2 2 2 1 1 2 3 2 2 1 1 2 1 1 2 2 1 1 2 3 2 2 4 5
Wind_Direction
75 64 63 64 62 72 79 78 80 77 73 68 70 75 66 55 50 46 38 42 49 54 57 57 55 54 53 52 51 51 51 50 49 47 47 46 46 49 53 52 53 53 54
109 91 76 71 72 80 87 89 88 84 74 71 65 66 66 59 54 52 42 36 41 49 53 53 53 54 54 52 50 49 50 48 46 45 44 44 46 49 52 53 53 55 53
123 113 96 83 84 93 92 88 80 76 77 73 59 54 61 61 56 50 43 37 35 41 48 48 49 50 50 50 49 47 47 44 43 41 39 39 41 47 51 55 56 55 53
133 125 111 101 105 106 100 91 80 74 69 69 61 43 52 56 54 50 45 41 37 35 37 43 45 46 46 47 48 46 44 42 40 36 35 35 37 42 49 51 53 53 52
136 131 121 113 113 103 91 98 77 86 87 78 75 53 45 47 44 50 45 42 40 38 34 34 37 39 41 42 43 42 41 39 36 36 36 36 38 41 50 49 48 51 52
136 130 120 114 115 103 92 92 91 75 86 88 80 61 43 42 44 42 35 41 39 37 36 33 29 27 32 34 35 35 36 35 35 36 36 37 39 41 41 42 44 47 50
130 130 122 115 116 118 123 118 106 87 67 75 81 49 26 34 44 38 36 40 35 32 36 34 32 29 22 22 24 26 28 30 32 34 35 36 38 39 38 36 38 42 48
125 134 132 131 126 124 121 119 115 106 72 60 107 92 28 360 6 25 27 38 28 32 34 31 29 25 20 16 15 20 22 25 27 30 33 34 35 37 37 37 38 42 48
113 121 134 132 134 139 145 146 135 132 130 59 72 131 135 216 318 349 9 23 18 22 17 20 21 16 15 13 11 14 18 19 22 25 29 31 32 33 34 37 39 44 51
97 122 135 133 132 136 146 159 141 143 140 137 79 67 122 150 141 339 343 359 9 17 5 15 10 7 9 10 9 14 19 19 20 23 26 29 31 32 34 38 42 43 47
77 114 139 132 128 132 142 140 131 137 138 147 146 130 99 77 102 140 295 330 352 352 355 4 5 359 359 360 3 10 17 21 24 25 25 24 25 28 33 38 42 42 42
38 86 128 129 128 128 145 145 137 131 124 122 126 134 146 148 165 151 181 277 319 319 340 358 3 352 351 353 357 10 18 21 22 22 21 20 23 27 32 36 39 41 43
203 220 130 127 124 130 129 121 121 125 123 120 130 135 144 162 155 149 150 180 313 319 334 338 348 348 350 356 353 0 12 17 18 20 20 22 28 33 37 37 37 37 41
203 188 145 133 128 124 117 113 114 127 123 129 130 130 125 152 146 150 155 148 114 349 351 312 328 351 350 357 356 2 7 15 17 19 21 23 30 32 35 35 34 34 37
174 151 140 134 123 114 114 116 112 124 124 134 140 134 123 122 141 149 143 150 152 173 297 295 314 337 347 359 0 5 359 5 10 10 14 17 20 25 29 29 30 31 31
148 133 133 135 131 124 122 121 117 115 122 131 134 126 119 102 117 125 140 140 146 164 212 267 274 309 346 3 5 3 353 358 2 5 8 9 11 14 19 22 23 24 24
142 141 151 148 148 147 136 133 141 137 142 140 127 136 157 127 121 123 121 121 131 141 189 275 293 330 357 353 355 1 359 359 358 2 5 7 9 11 16 18 20 20 18
147 153 139 137 147 151 148 156 160 156 160 164 172 153 180 128 131 128 134 149 164 170 177 230 296 324 318 327 336 349 354 354 356 5 10 9 8 8 13 17 20 19 15
145 134 130 146 158 155 153 164 161 157 165 175 173 170 188 146 153 158 152 161 176 158 163 182 260 296 310 332 341 342 351 355 353 356 6 11 11 12 15 16 16 12 6
152 152 156 162 158 152 151 153 147 145 151 163 175 182 188 176 190 184 176 185 155 137 136 153 256 305 304 309 345 322 331 338 339 356 2 7 12 15 13 9 7 4 357
158 156 149 146 145 150 157 153 150 149 152 152 168 213 211 196 207 194 189 183 157 152 149 166 233 316 310 309 282 271 297 312 319 344 340 356 5 9 2 352 350 351 350
150 143 153 158 165 177 168 159 149 153 157 160 176 245 277 238 245 236 230 196 170 173 184 185 211 235 261 253 249 259 267 326 310 323 334 326 1 331 344 345 344 343 342
157 154 168 166 183 203 180 164 157 149 158 177 189 197 264 358 31 111 17 348 235 218 196 186 206 234 243 238 217 237 236 232 255 288 317 305 324 314 338 345 348 352 356
167 172 177 185 192 214 192 172 160 142 150 182 202 201 195 239 223 156 133 56 336 313 252 213 217 237 242 228 210 221 227 247 280 330 8 284 306 303 320 336 350 360 5
178 182 179 184 191 227 203 179 152 146 152 203 232 201 196 225 239 176 146 177 297 319 356 304 284 305 321 322 145 101 72 42 296 293 312 258 295 304 303 312 346 1 2
184 179 181 191 191 213 207 179 159 151 158 186 280 284 249 248 265 211 174 181 227 268 316 8 9 360 10 12 20 156 188 207 256 283 280 255 288 322 313 301 331 341 341
Height
1551 1552 1552 1552 1553 1553 1553 1553 1554 1554 1554 1554 1554 1554 1553 1553 1552 1552 1551 1550 1549 1548 1547 1546 1545 1545 1544 1543 1542 1541 1540 1539 1538 1538 1537 1537 1537 1537 1537 1537 1538 1538 1538
1553 1553 1553 1553 1554 1554 1554 1555 1555 1555 1555 1555 1555 1555 1555 1554 1554 1553 1553 1552 1551 1550 1549 1548 1547 1546 1545 1544 1542 1541 1540 1539 1538 1537 1536 1535 1535 1535 1536 1536 1537 1537 1537
1554 1554 1554 1555 1555 1555 1555 1556 1556 1556 1556 1556 1556 1556 1556 1556 1555 1555 1554 1553 1552 1551 1550 1549 1548 1547 1546 1545 1543 1542 1541 1539 1537 1536 1534 1533 1533 1533 1534 1535 1536 1536 1536
1555 1555 1555 1555 1556 1556 1556 1556 1557 1557 1557 1557 1557 1557 1557 1557 1556 1556 1555 1554 1553 1553 1552 1551 1549 1548 1546 1545 1544 1543 1541 1539 1537 1535 1532 1530 1530 1531 1532 1534 1535 1535 1536
1556 1556 1556 1556 1556 1557 1557 1557 1557 1557 1558 1558 1558 1558 1558 1558 1557 1557 1556 1556 1555 1554 1553 1552 1550 1549 1548 1546 1545 1543 1542 1540 1537 1534 1531 1529 1529 1529 1531 1533 1534 1534 1535
1556 1556 1556 1556 1557 1557 1557 1557 1558 1558 1558 1558 1559 1559 1559 1559 1558 1558 1557 1557 1556 1555 1554 1553 1551 1550 1548 1547 1545 1544 1542 1541 1538 1536 1533 1531 1530 1530 1531 1533 1533 1534 1534
1556 1556 1556 1557 1557 1557 1557 1558 1558 1558 1558 1559 1559 1559 1560 1559 1559 1559 1558 1558 1557 1556 1555 1553 1552 1551 1549 1548 1546 1545 1543 1542 1540 1537 1535 1533 1532 1532 1532 1532 1532 1533 1533
1556 1556 1556 1557 1557 1557 1557 1558 1558 1558 1559 1559 1559 1559 1560 1561 1560 1559 1559 1558 1558 1557 1556 1554 1553 1552 1550 1549 1547 1546 1544 1543 1541 1539 1537 1535 1534 1533 1532 1532 1532 1532 1532
1556 1556 1556 1557 1557 1557 1557 1558 1558 1558 1558 1559 1559 1560 1560 1560 1560 1560 1559 1559 1558 1557 1556 1555 1554 1552 1551 1549 1548 1547 1545 1543 1542 1540 1538 1537 1535 1533 1532 1531 1531 1531 1532
1556 1556 1556 1556 1557 1557 1557 1557 1558 1558 1558 1559 1559 1559 1560 1560 1560 1560 1560 1559 1558 1557 1556 1555 1554 1553 1552 1550 1549 1547 1546 1544 1542 1541 1539 1537 1536 1534 1533 1532 1532 1532 1532
1555 1555 1556 1556 1556 1556 1557 1557 1557 1558 1558 1558 1558 1558 1559 1559 1559 1559 1559 1559 1558 1557 1556 1556 1554 1553 1552 1550 1549 1548 1546 1544 1543 1541 1539 1537 1535 1534 1533 1533 1532 1532 1532
1554 1554 1555 1556 1556 1556 1556 1556 1557 1557 1557 1557 1558 1558 1558 1558 1558 1558 1558 1557 1557 1557 1556 1555 1554 1553 1552 1550 1549 1548 1546 1544 1543 1541 1539 1537 1534 1533 1533 1533 1533 1532 1532
1553 1554 1554 1554 1555 1555 1555 1555 1556 1556 1556 1556 1556 1557 1557 1557 1557 1557 1557 1556 1556 1556 1555 1555 1554 1553 1552 1550 1549 1548 1546 1544 1543 1541 1540 1537 1534 1533 1532 1533 1533 1532 1532
1552 1553 1553 1553 1554 1554 1554 1554 1555 1555 1555 1555 1555 1556 1556 1556 1556 1556 1556 1555 1555 1554 1554 1554 1553 1552 1551 1550 1549 1547 1546 1545 1543 1542 1540 1538 1536 1535 1534 1534 1533 1533 1532
1551 1551 1552 1552 1553 1553 1553 1553 1554 1554 1554 1554 1554 1554 1554 1554 1554 1554 1554 1554 1554 1553 1552 1552 1552 1551 1550 1549 1548 1547 1546 1544 1543 1542 1540 1539 1537 1536 1535 1534 1533 1533 1532
1550 1550 1551 1551 1551 1552 1552 1552 1552 1553 1553 1553 1553 1553 1553 1553 1553 1553 1553 1553 1552 1552 1551 1551 1551 1550 1549 1548 1547 1546 1545 1544 1543 1541 1540 1539 1538 1537 1535 1534 1533 1532 1531
1548 1549 1549 1550 1550 1550 1550 1551 1551 1551 1551 1552 1552 1552 1552 1551 1551 1551 1551 1551 1551 1550 1549 1549 1549 1549 1548 1547 1546 1545 1544 1543 1542 1541 1539 1538 1537 1536 1535 1534 1533 1531 1530
1547 1547 1548 1548 1548 1549 1549 1549 1549 1549 1550 1550 1550 1550 1550 1550 1550 1550 1549 1549 1549 1549 1548 1547 1547 1547 1546 1545 1544 1543 1542 1541 1540 1539 1538 1537 1536 1535 1534 1532 1531 1530 1529
1545 1546 1546 1547 1547 1547 1547 1548 1548 1548 1548 1548 1548 1548 1548 1548 1548 1548 1548 1547 1547 1547 1547 1546 1545 1545 1544 1543 1542 1541 1540 1539 1538 1537 1536 1535 1534 1533 1532 1531 1529 1528 1527
1543 1544 1544 1545 1545 1546 1546 1546 1546 1546 1546 1546 1546 1546 1546 1546 1546 1546 1545 1545 1545 1545 1544 1544 1543 1542 1542 1541 1540 1538 1537 1537 1536 1535 1534 1532 1531 1530 1529 1528 1527 1526 1525
1542 1542 1543 1543 1544 1544 1544 1544 1544 1544 1544 1544 1544 1544 1544 1544 1544 1543 1543 1543 1543 1542 1542 1541 1540 1539 1539 1538 1537 1536 1534 1533 1533 1532 1531 1530 1528 1527 1526 1525 1524 1523 1521
1540 1540 1541 1541 1542 1542 1542 1542 1542 1542 1542 1542 1542 1542 1542 1542 1541 1541 1541 1541 1540 1540 1539 1538 1537 1536 1535 1535 1534 1533 1532 1530 1529 1529 1527 1526 1525 1524 1523 1521 1520 1519 1518
1537 1538 1539 1539 1539 1540 1540 1540 1540 1540 1540 1540 1540 1540 1540 1539 1539 1539 1539 1538 1538 1537 1537 1536 1534 1534 1533 1532 1531 1530 1529 1527 1526 1525 1524 1522 1522 1520 1519 1518 1517 1515 1514
1535 1535 1536 1537 1537 1538 1538 1538 1538 1538 1538 1538 1538 1538 1537 1537 1537 1537 1536 1535 1535 1534 1533 1532 1532 1531 1530 1529 1528 1528 1526 1525 1523 1522 1521 1519 1518 1517 1515 1514 1513 1512 1510
1532 1533 1533 1534 1534 1535 1535 1535 1535 1535 1535 1535 1535 1535 1535 1535 1535 1534 1533 1532 1531 1531 1530 1529 1529 1528 1527 1526 1525 1524 1523 1521 1519 1518 1518 1516 1514 1513 1511 1510 1509 1508 1506
1529 1530 1531 1531 1532 1532 1532 1533 1533 1532 1532 1532 1532 1532 1532 1532 1532 1531 1530 1529 1528 1527 1526 1525 1525 1524 1523 1522 1521 1520 1519 1518 1516 1515 1513 1512 1510 1509 1507 1506 1505 1504 1503